Jaipur, India

6:01 AM IST on August 27, 2016 (GMT +0530)
Jaipur

Weather History for VIJP - March, 2013

Change the Weather History Date:

Saturday, March 23, 2013

  Actual Average Record
Temperature  
Mean Temperature 84 °F -  
Max Temperature 95 °F - - ()
Min Temperature 72 °F - - ()
Cooling Degree Days 18    
Growing Degree Days 34 (Base 50)    
Moisture  
Dew Point 45 °F    
Average Humidity 25    
Maximum Humidity 41    
Minimum Humidity 8    
Precipitation  
Precipitation 0.00 in - - ()
Sea Level Pressure  
Sea Level Pressure 29.78 in    
Wind  
Wind Speed 6 mph ()    
Max Wind Speed 10 mph    
Max Gust Speed -    
Visibility 2.6 miles    
Events Rain , Thunderstorm    
T = Trace of Precipitation, MM = Missing Value Source: Averaged Metar Reports

Daily Weather History Graph

Daily Weather History Graph

Search for Another Location

Airport or City:

Trip Planner

Search our weather history database for the weather conditions in past years. The results will help you decide how hot, cold, wet, or windy it might be!

Date:

Astronomy

Mar. 23, 2013 Rise Set
Actual Time 6:27 AM IST 6:39 PM IST
Civil Twilight 6:04 AM IST 7:02 PM IST
Nautical Twilight 5:37 AM IST 7:29 PM IST
Astronomical Twilight 5:10 AM IST 7:56 PM IST
Moon 2:57 PM IST (3/23) 3:26 AM IST (3/23)
Length of Visible Light 12h 58m
Length of Day
12h 11m
Waxing Gibbous, 82% of the Moon is Illuminated
Mar 23
Waxing Gibbous
Mar 27
Full
Apr 3
Last Quarter
Apr 10
New
Apr 18
First Quarter

Hourly Weather History & Observations

Time (IST) Temp. Dew Point Humidity Pressure Visibility Wind Dir Wind Speed Gust Speed Precip Events Conditions
12:00 AM 78.8 °F 50.0 °F 36% 29.77 in 2.5 mi East 10.4 mph - N/A   Haze
1:00 AM 78.8 °F 50.0 °F 36% 29.77 in 2.5 mi East 8.1 mph - N/A   Haze
2:00 AM 77.0 °F 50.0 °F 39% 29.77 in 2.5 mi East 8.1 mph - N/A   Haze
3:00 AM 77.0 °F 50.0 °F 39% 29.77 in 2.5 mi East 6.9 mph - N/A   Haze
4:00 AM 77.0 °F 50.0 °F 39% 29.74 in 2.5 mi ENE 8.1 mph - N/A   Haze
5:00 AM 77.0 °F 50.0 °F 39% 29.77 in 2.5 mi ENE 8.1 mph - N/A   Haze
5:30 AM 75 °F 50 °F 30% 29.71 in 2 mi East 6.9 mph - -   Haze
6:00 AM 75.2 °F 50.0 °F 41% 29.77 in 2.5 mi East 6.9 mph - N/A   Haze
8:00 AM 78.8 °F 50.0 °F 36% 29.83 in 2.2 mi East 5.8 mph - N/A   Haze
8:30 AM 81 °F 52 °F 26% 29.76 in 2 mi East 6.9 mph - -   Haze
8:30 AM 78.8 °F 50.0 °F 36% 29.83 in 2.5 mi East 6.9 mph - N/A   Haze
9:00 AM 80.6 °F 50.0 °F 34% 29.86 in 2.5 mi ESE 5.8 mph - N/A   Haze
9:30 AM 82.4 °F 50.0 °F 32% 29.86 in 2.5 mi SE 4.6 mph - N/A   Haze
10:00 AM 84.2 °F 50.0 °F 30% 29.86 in 2.5 mi SE 4.6 mph - N/A   Haze
11:00 AM 84.2 °F 48.2 °F 29% 29.86 in 3.1 mi Variable 3.5 mph - N/A   Haze
11:30 AM 89 °F 50 °F 17% 29.76 in 2 mi Calm Calm - -   Haze
11:30 AM 87.8 °F 50.0 °F 27% 29.86 in 3.1 mi Calm Calm - N/A   Haze
12:00 PM 89.6 °F 46.4 °F 22% 29.86 in 3.1 mi Variable 4.6 mph - N/A   Haze
12:30 PM 89.6 °F 46.4 °F 22% 29.83 in 3.1 mi Variable 6.9 mph - N/A   Haze
1:00 PM 89.6 °F 44.6 °F 21% 29.83 in 3.1 mi Variable 5.8 mph - N/A   Haze
2:00 PM 91.4 °F 37.4 °F 15% 29.80 in 3.7 mi Variable 5.8 mph - N/A   Scattered Clouds
2:30 PM 95 °F 40 °F 8% 29.68 in 2 mi West 6.9 mph - -   Partly Cloudy
2:30 PM 93.2 °F 41.0 °F 16% 29.77 in 3.7 mi West 6.9 mph - N/A   Scattered Clouds
3:00 PM 91.4 °F 41.0 °F 17% 29.77 in 3.7 mi SE 3.5 mph - N/A   Scattered Clouds
3:30 PM 91.4 °F 39.2 °F 16% 29.77 in 3.7 mi Variable 4.6 mph - N/A   Scattered Clouds
4:00 PM 93.2 °F 39.2 °F 15% 29.74 in 3.7 mi SSW 5.8 mph - N/A   Scattered Clouds
4:30 PM 93.2 °F 37.4 °F 14% 29.74 in 3.7 mi Calm Calm - N/A   Scattered Clouds
5:00 PM 91.4 °F 37.4 °F 15% 29.74 in 3.7 mi WSW 9.2 mph - N/A   Partly Cloudy
5:30 PM 92 °F 40 °F 9% 29.65 in 2 mi SSW 5.8 mph - -  
6:00 PM 91.4 °F 39.2 °F 16% 29.74 in 3.1 mi SSW 5.8 mph - N/A   Haze
7:00 PM 87.8 °F 41.0 °F 19% 29.77 in 2.2 mi Variable 1.2 mph - N/A   Haze
8:30 PM 84 °F 43 °F 14% 29.71 in 1 mi Calm Calm - -   Haze
9:00 PM 84.2 °F 39.2 °F 20% 29.80 in 1.9 mi Variable 1.2 mph - N/A   Haze
10:00 PM 78.8 °F 41.0 °F 26% 29.83 in 1.9 mi WSW 6.9 mph - N/A   Haze
11:00 PM 77.0 °F 41.0 °F 28% 29.83 in 1.9 mi Calm Calm - N/A   Haze
11:30 PM 77 °F 46 °F 23% 29.76 in 1 mi Calm Calm - - Rain , Thunderstorm Thunderstorms and Rain